Location: Góry Miechowskie
(50.3599°N, 20.1803°E)
Time: 13:38:24
(UTC+00:00)

Cosmos 1934 Rocket - Pass Details

Date: 15 June 2024
Orbit: 937 x 999 km, 83.0° (Epoch: 15 July)

Event Time Altitude Azimuth Distance (km) Brightness Sun altitude
Exits shadow 01:38:14 - 186° (S) 3,593 6.5 -6.4°
Reaches altitude 10° 01:40:28 10° 186° (S) 2,753 5.9 -6.2°
Maximum altitude 01:46:49 88° 99° (E) 1,007 4.2 -5.5°
Drops below altitude 10° 01:53:14 10° 10° (N) 2,781 7.4 -4.8°
Sets 01:55:47 0° 10° (N) 3,732 8.1 -4.6°
